Home   Weather   Oral   Past weeks
Flag for Kazakhstan

Past Weather in Oral, Kazakhstan — Yesterday and Last 2 Weeks

Now
25 °F

Clear.


Feels Like: 16 °F
Forecast: 35 / 18 °F
Wind: 8 mph from Northwest

Location: Uralsk

Current Time: Mar 20, 2019 at 2:23:17 am

Latest Report: Mar 20, 2019 at 1:00 am


Visibility: 10 mi

Pressure: 30.33 "Hg

Humidity: 93%

Dew Point: 23 °F

Location of OralLocation

Past Weather in Oral — Graph

°F

Oral Temperature Yesterday

Maximum temperature yesterday: 34 °F (at 1:00 pm)
Minimum temperature yesterday: 27 °F (at 8:00 am)
Average temperature yesterday: 31 °F

High & Low Weather Summary for the Past Weeks

 TemperatureHumidityPressure
High37 °F (Mar 6, 1:00 pm)100% (Mar 5, 1:00 am)30.57 "Hg (Mar 5, 1:00 am)
Low-8 °F (Mar 8, 8:30 am)54% (Mar 8, 4:30 pm)29.50 "Hg (Mar 11, 6:00 pm)
Average28 °F90%30.05 "Hg
* Reported Mar 5 1:00 am — Mar 20 1:00 am, Oral. Weather by CustomWeather, © 2019

Note: Actual official high and low records may vary slightly from our data, if they occured in-between our weather recording intervals... More about our weather records

Advertising

Oral Weather History for the Previous 24 Hours

Scroll right to see more
 ConditionsComfort  
Time TempWeatherWind HumidityBarometerVisibility
1:00 am
Wed, Mar 20
25 °FClear.8 mph93%30.33 "Hg10 mi
12:00 am27 °FClear.8 mph93%30.33 "Hg10 mi
11:00 pm
Tue, Mar 19
27 °FClear.8 mph100%30.36 "Hg10 mi
10:00 pm28 °FClear.6 mph100%30.36 "Hg10 mi
9:00 pm30 °FClear.6 mph93%30.36 "Hg10 mi
8:30 pm32 °FClear.6 mph87%30.36 "Hg10 mi
8:00 pm32 °FClear.8 mph93%30.36 "Hg10 mi
7:30 pm32 °FSunny.8 mph93%30.33 "Hg10 mi
7:00 pm34 °FSunny.10 mph87%30.33 "Hg10 mi
6:30 pm34 °FSunny.10 mph87%30.33 "Hg10 mi
6:00 pm34 °FSunny.13 mph87%30.30 "Hg10 mi
5:30 pm34 °FSunny.13 mph87%30.30 "Hg10 mi
5:00 pm34 °FSunny.13 mph87%30.33 "Hg10 mi
4:30 pm34 °FSunny.13 mph87%30.33 "Hg10 mi
4:00 pm34 °FSunny.10 mph87%30.33 "Hg10 mi
3:30 pm34 °FSunny.10 mph87%30.33 "Hg10 mi
3:00 pm34 °FSunny.10 mph87%30.33 "Hg10 mi
2:30 pm34 °FSunny.10 mph87%30.33 "Hg10 mi
2:00 pm34 °FSunny.13 mph81%30.33 "Hg10 mi
1:30 pm34 °FSunny.10 mph87%30.33 "Hg10 mi
1:00 pm34 °FPartly sunny.8 mph87%30.33 "HgN/A
12:30 pm32 °FPartly sunny.8 mph87%30.33 "HgN/A
12:00 pm32 °FPartly sunny.8 mph87%30.33 "HgN/A
11:30 am32 °FPartly sunny.10 mph87%30.33 "HgN/A
11:00 am30 °FPartly sunny.13 mph93%30.33 "HgN/A
10:30 am28 °FPartly sunny.10 mph93%30.33 "HgN/A
10:00 am30 °FPartly sunny.10 mph93%30.33 "HgN/A
9:30 am28 °FPartly sunny.10 mph93%30.33 "HgN/A
9:00 am28 °FPartly sunny.10 mph93%30.33 "HgN/A
8:30 am28 °FPartly sunny.10 mph93%30.33 "HgN/A
8:00 am27 °FPartly sunny.10 mph93%30.30 "HgN/A
7:30 am28 °FOvercast.10 mph93%30.30 "HgN/A
7:00 am28 °FOvercast.8 mph93%30.30 "HgN/A
6:30 am28 °FPassing clouds.8 mph93%30.30 "HgN/A
5:30 am28 °FPassing clouds.10 mph93%30.27 "HgN/A
4:00 am30 °FPassing clouds.10 mph93%30.27 "HgN/A
3:00 am32 °FPassing clouds.10 mph87%30.27 "HgN/A
2:00 am32 °FPassing clouds.13 mph87%30.27 "HgN/A
Weather by CustomWeather, © 2019

See weather overview